Starlink 31928

operational
NORAD ID: 59897 Int'l Des: 2024-100 Owner: SPXS Country: US Constellation: starlink
LEOCIRCULAR

About Starlink 31928

Description loading...

Live Position

Loading 3D Globe...

Upcoming Passes

Altitude History

Altitude vs Time

uPlot chart will show altitude changes over time

Two-Line Element Set

1 59897U 24100N 25309.84828754 .00000073 00000-0 12196-4 0 9993
2 59897 43.0023 105.0711 0001459 272.3216 87.7469 15.27570463 82112
Epoch: Nov 5, 2025 • Age: 11 hours

Current Status

Altitude 495.4 km
Velocity 7.62 km/s
Sub-Earth Point -43.16°S, 137.13°W
Launch Date May 28, 2024
Age 1.4 years
Type internet

Technical Details

Classification Payload
Mass 730.00 kg
Dry Mass 700.00 kg
Total Mass 730.00 kg
Length 0.30 m
Diameter 4.10 m
Span 29.00 m
Shape Box + pan
Manufacturer SPXS
Bus Type Starlink V2M
Phase Status In Orbit
Owner/State SPXS/US

Large Constellations

Loading constellations...